Date,Installs,Update checks
2021-07-26,4,0
2021-07-27,5,3
2021-07-28,13,1
2021-07-29,8,3
2021-07-30,13,3
2021-07-31,8,5
2021-08-01,11,8
2021-08-02,11,7
2021-08-03,6,13
2021-08-04,5,11
2021-08-05,14,12
2021-08-06,4,13
2021-08-07,8,16
2021-08-08,15,17
2021-08-09,12,17
2021-08-10,13,13
2021-08-11,8,24
2021-08-12,3,15
2021-08-13,7,17
2021-08-14,9,18
2021-08-15,12,14
2021-08-16,12,23
2021-08-17,11,21
2021-08-18,7,24
2021-08-19,14,25
2021-08-20,12,18
2021-08-21,9,22
2021-08-22,6,24
2021-08-23,11,29
2021-08-24,9,25
2021-08-25,10,27
2021-08-26,12,34
2021-08-27,11,26
2021-08-28,14,22
2021-08-29,12,34
2021-08-30,16,31
2021-08-31,12,35
2021-09-01,18,36
2021-09-02,11,36
2021-09-03,12,38
2021-09-04,10,33
2021-09-05,6,31
2021-09-06,8,34
2021-09-07,4,37
2021-09-08,13,35
2021-09-09,14,37
2021-09-10,8,44
2021-09-11,17,38
2021-09-12,12,45
2021-09-13,14,50
2021-09-14,10,42
2021-09-15,6,43
2021-09-16,15,53
2021-09-17,15,43
2021-09-18,22,36
2021-09-19,15,44
2021-09-20,19,51
2021-09-21,13,51
2021-09-22,18,47
2021-09-23,14,49
2021-09-24,14,52
2021-09-25,15,54
2021-09-26,13,44
2021-09-27,11,58
2021-09-28,16,67
2021-09-29,15,70
2021-09-30,17,64
2021-10-01,17,71
2021-10-02,12,60
2021-10-03,16,52
2021-10-04,9,61
2021-10-05,10,68
2021-10-06,18,67
2021-10-07,20,63
2021-10-08,14,64
2021-10-09,13,47
2021-10-10,13,57
2021-10-11,10,74
2021-10-12,9,71
2021-10-13,13,73
2021-10-14,15,73
2021-10-15,18,69
2021-10-16,15,64
2021-10-17,14,60
2021-10-18,12,81
2021-10-19,16,80
2021-10-20,11,80
2021-10-21,12,75
2021-10-22,18,77
2021-10-23,8,61
2021-10-24,18,66
2021-10-25,13,91
2021-10-26,17,87
2021-10-27,15,83
2021-10-28,16,84
2021-10-29,26,76
2021-10-30,39,72
2021-10-31,33,86
2021-11-01,17,84
2021-11-02,18,95
2021-11-03,18,101
2021-11-04,17,99
2021-11-05,16,96
2021-11-06,10,77
2021-11-07,6,90
2021-11-08,15,96
2021-11-09,14,102
2021-11-10,16,90
2021-11-11,17,97
2021-11-12,10,93
2021-11-13,12,86
2021-11-14,12,82
2021-11-15,11,109
2021-11-16,10,106
2021-11-17,13,108
2021-11-18,18,121
2021-11-19,12,101
2021-11-20,17,90
2021-11-21,13,80
2021-11-22,9,107
2021-11-23,9,105
2021-11-24,7,100
2021-11-25,11,100
2021-11-26,8,101
2021-11-27,14,82
2021-11-28,11,87
2021-11-29,10,98
2021-11-30,19,105
2021-12-01,12,97
2021-12-02,14,112
2021-12-03,29,105
2021-12-04,12,88
2021-12-05,19,91
2021-12-06,10,125
2021-12-07,12,117
2021-12-08,17,118
2021-12-09,17,100
2021-12-10,14,113
2021-12-11,16,82
2021-12-12,10,90
2021-12-13,16,104
2021-12-14,16,110
2021-12-15,14,88
2021-12-16,20,99
2021-12-17,21,110
2021-12-18,18,87
2021-12-19,19,85
2021-12-20,16,105
2021-12-21,13,97
2021-12-22,12,89
2021-12-23,15,76
2021-12-24,10,81
2021-12-25,8,83
2021-12-26,6,89
2021-12-27,7,86
2021-12-28,15,73
2021-12-29,9,92
2021-12-30,13,96
2021-12-31,7,75
2022-01-01,8,85
2022-01-02,6,93
2022-01-03,10,108
2022-01-04,6,102
2022-01-05,13,109
2022-01-06,12,113
2022-01-07,7,100
2022-01-08,14,106
2022-01-09,10,9
2022-01-10,10,0
2022-01-11,10,114
2022-01-12,13,105
2022-01-13,22,123
2022-01-14,18,125
2022-01-15,19,101
2022-01-16,9,90
2022-01-17,12,100
2022-01-18,12,113
2022-01-19,9,112
2022-01-20,17,122
2022-01-21,16,113
2022-01-22,17,100
2022-01-23,6,96
2022-01-24,17,122
2022-01-25,21,136
2022-01-26,19,122
2022-01-27,18,125
2022-01-28,15,100
2022-01-29,16,102
2022-01-30,12,89
2022-01-31,13,124
2022-02-01,15,120
2022-02-02,14,121
2022-02-03,23,127
2022-02-04,19,126
2022-02-05,13,114
2022-02-06,14,99
2022-02-07,23,148
2022-02-08,15,146
2022-02-09,18,152
2022-02-10,17,155
2022-02-11,17,142
2022-02-12,17,108
2022-02-13,11,115
2022-02-14,14,140
2022-02-15,21,137
2022-02-16,19,147
2022-02-17,10,142
2022-02-18,9,136
2022-02-19,13,104
2022-02-20,14,112
2022-02-21,14,112
2022-02-22,21,129
2022-02-23,18,144
2022-02-24,13,149
2022-02-25,16,113
2022-02-26,24,114
2022-02-27,11,115
2022-02-28,14,157
2022-03-01,10,144
2022-03-02,13,136
2022-03-03,13,141
2022-03-04,12,140
2022-03-05,10,112
2022-03-06,12,104
2022-03-07,8,146
2022-03-08,14,150
2022-03-09,21,137
2022-03-10,17,150
2022-03-11,17,128
2022-03-12,10,125
2022-03-13,10,117
2022-03-14,10,147
2022-03-15,13,136
2022-03-16,14,139
2022-03-17,13,124
2022-03-18,10,135
2022-03-19,13,106
2022-03-20,12,104
2022-03-21,8,137
2022-03-22,12,136
2022-03-23,10,140
2022-03-24,14,141
2022-03-25,12,149
2022-03-26,8,102
2022-03-27,6,118
2022-03-28,14,153
2022-03-29,12,151
2022-03-30,9,159
2022-03-31,11,152
2022-04-01,14,151
2022-04-02,12,115
2022-04-03,15,113
2022-04-04,10,168
2022-04-05,13,151
2022-04-06,17,153
2022-04-07,16,143
2022-04-08,18,153
2022-04-09,9,106
2022-04-10,3,119
2022-04-11,21,146
2022-04-12,13,131
2022-04-13,16,145
2022-04-14,13,129
2022-04-15,15,110
2022-04-16,7,106
2022-04-17,11,100
2022-04-18,15,135
2022-04-19,13,126
2022-04-20,11,142
2022-04-21,7,138
2022-04-22,8,132
2022-04-23,15,95
2022-04-24,8,120
2022-04-25,7,151
2022-04-26,11,148
2022-04-27,12,155
2022-04-28,13,134
2022-04-29,15,134
2022-04-30,8,113
2022-05-01,5,112
2022-05-02,6,145
2022-05-03,11,138
2022-05-04,23,150
2022-05-05,16,132
2022-05-06,14,154
2022-05-07,12,111
2022-05-08,10,112
2022-05-09,7,152
2022-05-10,18,148
2022-05-11,10,168
2022-05-12,14,168
2022-05-13,18,145
2022-05-14,11,115
2022-05-15,17,122
2022-05-16,11,158
2022-05-17,12,157
2022-05-18,22,162
2022-05-19,12,156
2022-05-20,12,160
2022-05-21,25,122
2022-05-22,10,122
2022-05-23,9,146
2022-05-24,12,165
2022-05-25,18,156
2022-05-26,8,137
2022-05-27,14,146
2022-05-28,13,125
2022-05-29,10,130
2022-05-30,14,147
2022-05-31,16,159
2022-06-01,9,137
2022-06-02,18,153
2022-06-03,9,139
2022-06-04,13,120
2022-06-05,15,122
2022-06-06,10,151
2022-06-07,10,154
2022-06-08,16,162
2022-06-09,12,145
2022-06-10,14,131
2022-06-11,5,100
2022-06-12,7,108
2022-06-13,7,139
2022-06-14,8,137
2022-06-15,11,114
2022-06-16,7,134
2022-06-17,12,116
2022-06-18,9,108
2022-06-19,6,95
2022-06-20,10,133
2022-06-21,12,145
2022-06-22,11,133
2022-06-23,16,123
2022-06-24,15,135
2022-06-25,7,117
2022-06-26,12,112
2022-06-27,10,133
2022-06-28,10,130
2022-06-29,7,129
2022-06-30,12,131
2022-07-01,12,102
2022-07-02,5,94
2022-07-03,5,127
2022-07-04,14,121
2022-07-05,7,122
2022-07-06,12,118
2022-07-07,4,113
2022-07-08,6,101
2022-07-09,10,97
2022-07-10,12,108
2022-07-11,11,108
2022-07-12,4,118
2022-07-13,13,108
2022-07-14,8,114
2022-07-15,10,96
2022-07-16,4,106
2022-07-17,8,107
2022-07-18,9,104
2022-07-19,4,122
2022-07-20,9,121
2022-07-21,9,106
2022-07-22,4,104
2022-07-23,9,108
2022-07-24,2,87
2022-07-25,9,114
2022-07-26,5,124
2022-07-27,12,103
2022-07-28,7,120
2022-07-29,3,115
2022-07-30,9,89
2022-07-31,4,106
2022-08-01,2,118
2022-08-02,5,103
2022-08-03,2,98
2022-08-04,4,99
2022-08-05,6,98
2022-08-06,5,98
2022-08-07,8,102
2022-08-08,5,112
2022-08-09,2,103
2022-08-10,8,106
2022-08-11,8,117
2022-08-12,7,111
2022-08-13,11,109
2022-08-14,11,104
2022-08-15,13,119
2022-08-16,5,130
2022-08-17,6,137
2022-08-18,10,112
2022-08-19,4,121
2022-08-20,4,106
2022-08-21,4,115
2022-08-22,3,138
2022-08-23,14,135
2022-08-24,7,131
2022-08-25,7,128
2022-08-26,8,117
2022-08-27,8,117
2022-08-28,5,132
2022-08-29,5,138
2022-08-30,7,122
2022-08-31,6,132
2022-09-01,16,126
2022-09-02,17,132
2022-09-03,9,102
2022-09-04,6,110
2022-09-05,10,122
2022-09-06,10,136
2022-09-07,12,128
2022-09-08,13,126
2022-09-09,7,137
2022-09-10,12,114
2022-09-11,14,126
2022-09-12,10,146
2022-09-13,11,130
2022-09-14,6,135
2022-09-15,14,156
2022-09-16,8,120
2022-09-17,6,117
2022-09-18,5,112
2022-09-19,9,129
2022-09-20,10,133
2022-09-21,12,141
2022-09-22,10,128
2022-09-23,16,132
2022-09-24,9,122
2022-09-25,9,130
2022-09-26,11,142
2022-09-27,12,134
2022-09-28,9,128
2022-09-29,19,133
2022-09-30,12,142
2022-10-01,9,100
2022-10-02,13,113
2022-10-03,16,149
2022-10-04,14,138
2022-10-05,18,139
2022-10-06,12,132
2022-10-07,9,132
2022-10-08,8,118
2022-10-09,10,111
2022-10-10,5,143
2022-10-11,10,146
2022-10-12,7,136
2022-10-13,12,124
2022-10-14,7,149
2022-10-15,13,112
2022-10-16,12,119
2022-10-17,13,140
2022-10-18,10,146
2022-10-19,10,157
2022-10-20,22,147
2022-10-21,11,139
2022-10-22,9,121
2022-10-23,4,113
2022-10-24,9,141
2022-10-25,9,141
2022-10-26,9,135
2022-10-27,19,148
2022-10-28,11,134
2022-10-29,17,100
2022-10-30,9,116
2022-10-31,11,133
2022-11-01,7,136
2022-11-02,18,148
2022-11-03,9,139
2022-11-04,18,129
2022-11-05,16,124
2022-11-06,17,140
2022-11-07,12,156
2022-11-08,9,141
2022-11-09,10,151
2022-11-10,13,158
2022-11-11,9,139
2022-11-12,15,130
2022-11-13,9,126
2022-11-14,8,155
2022-11-15,9,165
2022-11-16,11,133
2022-11-17,12,141
2022-11-18,9,134
2022-11-19,17,106
2022-11-20,17,112
2022-11-21,13,132
2022-11-22,9,136
2022-11-23,8,128
2022-11-24,17,148
2022-11-25,10,131
2022-11-26,8,126
2022-11-27,3,105
2022-11-28,8,133
2022-11-29,17,147
2022-11-30,8,136
2022-12-01,12,135
2022-12-02,15,141
2022-12-03,11,108
2022-12-04,15,121
2022-12-05,7,135
2022-12-06,15,133
2022-12-07,15,133
2022-12-08,17,142
2022-12-09,14,128
2022-12-10,10,108
2022-12-11,13,113
2022-12-12,15,148
2022-12-13,20,121
2022-12-14,15,126
2022-12-15,13,153
2022-12-16,18,127
2022-12-17,8,112
2022-12-18,12,102
2022-12-19,11,140
2022-12-20,12,121
2022-12-21,9,118
2022-12-22,8,116
2022-12-23,16,115
2022-12-24,9,87
2022-12-25,9,88
2022-12-26,8,103
2022-12-27,9,92
2022-12-28,5,107
2022-12-29,3,84
2022-12-30,6,99
2022-12-31,8,94
2023-01-01,11,109
2023-01-02,14,116
2023-01-03,8,137
2023-01-04,9,128
2023-01-05,8,142
2023-01-06,12,125
2023-01-07,7,110
2023-01-08,10,133
2023-01-09,11,158
2023-01-10,10,136
2023-01-11,8,158
2023-01-12,8,154
2023-01-13,12,151
2023-01-14,12,126
2023-01-15,10,130
2023-01-16,15,161
2023-01-17,11,169
2023-01-18,10,154
2023-01-19,10,158
2023-01-20,15,148
2023-01-21,10,123
2023-01-22,5,129
2023-01-23,13,152
2023-01-24,11,155
2023-01-25,5,149
2023-01-26,10,156
2023-01-27,9,141
2023-01-28,16,127
2023-01-29,11,123
2023-01-30,8,164
2023-01-31,12,155
2023-02-01,7,155
2023-02-02,10,149
2023-02-03,10,173
2023-02-04,14,124
2023-02-05,10,129
2023-02-06,14,183
2023-02-07,7,171
2023-02-08,8,177
2023-02-09,11,157
2023-02-10,14,155
2023-02-11,8,126
2023-02-12,14,125
2023-02-13,10,161
2023-02-14,8,162
2023-02-15,8,171
2023-02-16,14,155
2023-02-17,8,151
2023-02-18,11,117
2023-02-19,15,126
2023-02-20,5,137
2023-02-21,6,153
2023-02-22,10,154
2023-02-23,14,138
2023-02-24,14,153
2023-02-25,14,130
2023-02-26,4,130
2023-02-27,16,166
2023-02-28,6,144
2023-03-01,8,156
2023-03-02,9,156
2023-03-03,9,141
2023-03-04,9,115
2023-03-05,16,135
2023-03-06,4,156
2023-03-07,9,159
2023-03-08,10,154
2023-03-09,13,158
2023-03-10,8,139
2023-03-11,9,109
2023-03-12,12,129
2023-03-13,6,161
2023-03-14,8,148
2023-03-15,8,145
2023-03-16,13,128
2023-03-17,17,143
2023-03-18,10,117
2023-03-19,8,113
2023-03-20,4,163
2023-03-21,10,147
2023-03-22,11,146
2023-03-23,13,156
2023-03-24,12,144
2023-03-25,10,119
2023-03-26,19,116
2023-03-27,20,153
2023-03-28,16,144
2023-03-29,13,132
2023-03-30,13,154
2023-03-31,11,147
2023-04-01,9,120
2023-04-02,8,121
2023-04-03,20,145
2023-04-04,20,143
2023-04-05,13,145
2023-04-06,13,147
2023-04-07,4,139
2023-04-08,6,116
2023-04-09,6,120
2023-04-10,10,139
2023-04-11,14,142
2023-04-12,18,143
2023-04-13,10,130
2023-04-14,7,141
2023-04-15,9,116
2023-04-16,7,136
2023-04-17,11,174
2023-04-18,8,143
2023-04-19,7,155
2023-04-20,11,147
2023-04-21,13,148
2023-04-22,9,108
2023-04-23,9,108
2023-04-24,13,164
2023-04-25,13,158
2023-04-26,18,148
2023-04-27,9,169
2023-04-28,12,161
2023-04-29,7,123
2023-04-30,10,120
2023-05-01,6,148
2023-05-02,8,170
2023-05-03,20,164
2023-05-04,19,162
2023-05-05,19,164
2023-05-06,7,117
2023-05-07,12,122
2023-05-08,12,155
2023-05-09,13,178
2023-05-10,7,160
2023-05-11,5,161
2023-05-12,12,161
2023-05-13,10,122
2023-05-14,8,131
2023-05-15,13,178
2023-05-16,11,160
2023-05-17,13,164
2023-05-18,17,160
2023-05-19,12,138
2023-05-20,9,119
2023-05-21,9,129
2023-05-22,8,156
2023-05-23,8,150
2023-05-24,13,169
2023-05-25,8,163
2023-05-26,13,156
2023-05-27,7,116
2023-05-28,15,118
2023-05-29,11,139
2023-05-30,7,139
2023-05-31,6,151
2023-06-01,9,157
2023-06-02,13,137
2023-06-03,10,112
2023-06-04,7,103
2023-06-05,14,140
2023-06-06,12,155
2023-06-07,14,154
2023-06-08,13,152
2023-06-09,15,145
2023-06-10,12,123
2023-06-11,9,114
2023-06-12,12,167
2023-06-13,15,126
2023-06-14,15,149
2023-06-15,12,158
2023-06-16,9,143
2023-06-17,10,117
2023-06-18,10,121
2023-06-19,11,147
2023-06-20,11,135
2023-06-21,9,150
2023-06-22,10,145
2023-06-23,8,141
2023-06-24,4,116
2023-06-25,3,126
2023-06-26,10,125
2023-06-27,5,125
2023-06-28,8,120
2023-06-29,5,130
2023-06-30,11,101
2023-07-01,5,101
2023-07-02,1,118
2023-07-03,5,112
2023-07-04,6,115
2023-07-05,8,109
2023-07-06,11,105
2023-07-07,9,107
2023-07-08,6,97
2023-07-09,7,106
2023-07-10,6,100
2023-07-11,11,107
2023-07-12,9,119
2023-07-13,6,106
2023-07-14,9,112
2023-07-15,9,103
2023-07-16,6,114
2023-07-17,6,116
2023-07-18,10,119
2023-07-19,8,119
2023-07-20,10,110
2023-07-21,5,108
2023-07-22,9,106
2023-07-23,4,105
2023-07-24,8,115
2023-07-25,7,130
2023-07-26,12,122
2023-07-27,6,122
2023-07-28,7,110
2023-07-29,12,109
2023-07-30,8,113
2023-07-31,2,102
2023-08-01,9,102
2023-08-02,10,120
2023-08-03,7,105
2023-08-04,2,97
2023-08-05,4,102
2023-08-06,5,104
2023-08-07,6,111
2023-08-08,5,112
2023-08-09,6,103
2023-08-10,10,111
2023-08-11,7,106
2023-08-12,5,98
2023-08-13,8,100
2023-08-14,6,114
2023-08-15,3,112
2023-08-16,5,113
2023-08-17,10,116
2023-08-18,7,96
2023-08-19,7,105
2023-08-20,7,90
2023-08-21,3,95
2023-08-22,6,107
2023-08-23,8,128
2023-08-24,5,123
2023-08-25,6,118
2023-08-26,10,92
2023-08-27,9,98
2023-08-28,7,130
2023-08-29,7,121
2023-08-30,13,132
2023-08-31,8,119
2023-09-01,11,110
2023-09-02,5,87
2023-09-03,2,115
2023-09-04,10,116
2023-09-05,6,137
2023-09-06,10,123
2023-09-07,6,127
2023-09-08,5,143
2023-09-09,8,92
2023-09-10,13,117
2023-09-11,5,135
2023-09-12,4,126
2023-09-13,8,127
2023-09-14,7,129
2023-09-15,10,148
2023-09-16,7,99
2023-09-17,12,106
2023-09-18,12,142
2023-09-19,12,138
2023-09-20,9,143
2023-09-21,8,129
2023-09-22,8,130
2023-09-23,12,106
2023-09-24,6,112
2023-09-25,15,138
2023-09-26,14,125
2023-09-27,16,134
2023-09-28,14,124
2023-09-29,16,140
2023-09-30,15,110
2023-10-01,10,93
2023-10-02,5,153
2023-10-03,13,144
2023-10-04,16,150
2023-10-05,14,141
2023-10-06,8,132
2023-10-07,12,99
2023-10-08,16,113
2023-10-09,6,132
2023-10-10,5,164
2023-10-11,12,152
2023-10-12,17,130
2023-10-13,9,138
2023-10-14,13,98
2023-10-15,7,125
2023-10-16,13,149
2023-10-17,18,155
2023-10-18,12,139
2023-10-19,11,135
2023-10-20,6,135
2023-10-21,13,110
2023-10-22,7,119
2023-10-23,4,153
2023-10-24,9,152
2023-10-25,9,159
2023-10-26,4,147
2023-10-27,2,128
2023-10-28,4,103
2023-10-29,3,115
2023-10-30,7,153
2023-10-31,6,139
2023-11-01,13,152
2023-11-02,7,136
2023-11-03,10,135
2023-11-04,10,106
2023-11-05,7,102
2023-11-06,6,164
2023-11-07,9,142
2023-11-08,8,140
2023-11-09,12,145
2023-11-10,11,132
2023-11-11,6,94
2023-11-12,12,101
2023-11-13,10,150
2023-11-14,9,152
2023-11-15,16,162
2023-11-16,14,142
2023-11-17,12,133
2023-11-18,9,100
2023-11-19,12,115
2023-11-20,9,157
2023-11-21,9,130
2023-11-22,19,131
2023-11-23,15,140
2023-11-24,13,116
2023-11-25,12,95
2023-11-26,5,111
2023-11-27,11,151
2023-11-28,8,150
2023-11-29,19,150
2023-11-30,22,160
2023-12-01,14,144
2023-12-02,18,106
2023-12-03,13,121
2023-12-04,11,168
2023-12-05,13,119
2023-12-06,12,114
2023-12-07,20,125
2023-12-08,17,114
2023-12-09,22,87
2023-12-10,17,99
2023-12-11,11,129
2023-12-12,10,125
2023-12-13,13,118
2023-12-14,14,123
2023-12-15,16,95
2023-12-16,8,83
2023-12-17,8,85
2023-12-18,6,106
2023-12-19,9,93
2023-12-20,7,100
2023-12-21,13,100
2023-12-22,13,80
2023-12-23,11,74
2023-12-24,5,63
2023-12-25,7,65
2023-12-26,16,71
2023-12-27,10,85
2023-12-28,9,76
2023-12-29,5,79
2023-12-30,8,84
2023-12-31,7,68
2024-01-01,3,77
2024-01-02,9,85
2024-01-03,6,81
2024-01-04,7,75
2024-01-05,2,88
2024-01-06,6,69
2024-01-07,4,92
2024-01-08,7,99
2024-01-09,6,98
2024-01-10,7,92
2024-01-11,12,107
2024-01-12,13,105
2024-01-13,8,70
2024-01-14,12,82
2024-01-15,8,101
2024-01-16,6,101
2024-01-17,7,101
2024-01-18,15,88
2024-01-19,15,97
2024-01-20,10,82
2024-01-21,8,77
2024-01-22,9,110
2024-01-23,10,119
2024-01-24,14,128
2024-01-25,10,122
2024-01-26,15,117
2024-01-27,11,102
2024-01-28,22,90
2024-01-29,10,121
2024-01-30,11,126
2024-01-31,12,110
2024-02-01,12,126
2024-02-02,8,123
2024-02-03,9,96
2024-02-04,8,100
2024-02-05,10,113
2024-02-06,13,130
2024-02-07,15,131
2024-02-08,11,116
2024-02-09,11,131
2024-02-10,12,81
2024-02-11,7,98
2024-02-12,14,120
2024-02-13,8,118
2024-02-14,11,107
2024-02-15,12,128
2024-02-16,5,101
2024-02-17,3,98
2024-02-18,7,91
2024-02-19,7,98
2024-02-20,4,110
2024-02-21,7,114
2024-02-22,13,103
2024-02-23,15,116
2024-02-24,5,89
2024-02-25,7,96
2024-02-26,7,125
2024-02-27,12,130
2024-02-28,13,108
2024-02-29,6,126
2024-03-01,8,102
2024-03-02,4,110
2024-03-03,3,96
2024-03-04,9,129
2024-03-05,7,122
2024-03-06,7,116
2024-03-07,5,115
2024-03-08,5,99
2024-03-09,4,81
2024-03-10,3,87
2024-03-11,7,116
2024-03-12,2,113
2024-03-13,6,109
2024-03-14,10,102
2024-03-15,8,125
2024-03-16,12,89
2024-03-17,11,101
2024-03-18,4,128
2024-03-19,4,107
2024-03-20,11,106
2024-03-21,9,117
2024-03-22,5,101
2024-03-23,13,88
2024-03-24,4,104
2024-03-25,13,107
2024-03-26,6,115
2024-03-27,6,104
2024-03-28,11,98
2024-03-29,9,74
2024-03-30,6,87
2024-03-31,5,81
2024-04-01,2,96
2024-04-02,6,115
2024-04-03,10,112
2024-04-04,7,104
2024-04-05,12,114
2024-04-06,13,93
2024-04-07,5,99
2024-04-08,2,118
2024-04-09,3,117
2024-04-10,1,107
2024-04-11,8,123
2024-04-12,4,112
2024-04-13,1,95
2024-04-14,7,105
2024-04-15,2,122
2024-04-16,1,130
2024-04-17,5,113
2024-04-18,6,130
2024-04-19,3,103
2024-04-20,5,97
2024-04-21,3,90
2024-04-22,1,114
2024-04-23,5,114
2024-04-24,4,101
2024-04-25,8,105
2024-04-26,5,118
2024-04-27,5,84
2024-04-28,3,95
2024-04-29,8,115
2024-04-30,3,113
2024-05-01,4,100
2024-05-02,3,114
2024-05-03,7,104
2024-05-04,5,84
2024-05-05,7,91
2024-05-06,11,123
2024-05-07,7,113
2024-05-08,4,128
2024-05-09,8,110
2024-05-10,16,112
2024-05-11,2,100
2024-05-12,4,93
2024-05-13,4,130
2024-05-14,5,116
2024-05-15,8,132
2024-05-16,6,118
2024-05-17,5,98
2024-05-18,5,89
2024-05-19,1,100
2024-05-20,8,108
2024-05-21,5,108
2024-05-22,4,106
2024-05-23,3,119
2024-05-24,5,88
2024-05-25,5,91
2024-05-26,5,95
2024-05-27,3,91
2024-05-28,5,106
2024-05-29,1,2
